Résultats

Lo Camin de Joany / 2005
30 - Genolhac - Gard - France

11

Sep



13 Km
Running (on road)

126 arrivants
90 hommes | 36 femmes
temps moyen : 01:06:58


classement statistiques modifier le filtre
cliquez sur le nom du participant pour consulter le détail des temps

Class. Temps Nom Club Dossard Categ.  
1 00:44:36 RUIZ STEPHANE ALES CA 229 SE M
2 00:47:25 LEGUERN FREDERIC ALES CA 221 SE M
3 00:49:08 BUISSON CYRIL ALES CA 51 SE M
4 00:49:22 DUJARDIN DAVID ALES TRI 278 SE M
5 00:49:50 NICOLAS CHRISTOPHE ALES CA 254 V1 M
6 00:50:09 TOME DIDIER ACN ANDUZE 47 V1 M
7 00:50:13 CATHELAIN PASCAL ACN ANDUZE 259 V1 M
8 00:50:25 DUMAS LUDOVIC ACN ANDUZE 108 SE M
9 00:51:28 BENIRBAH MOHAMED ALES CA 109 SE M
10 00:52:25 MARTIN MICHEL ACN ANDUZE 255 V1 M
11 00:52:38 DIANO PASCAL SCAC 216 V1 M
12 00:52:49 RIEUTORD JEAN MICHEL ALES CA 121 V1 M
13 00:53:00 SOULIER JEREMIE ACN ANDUZE 211 ES M
14 00:53:01 LE DONGE THIERRY CA BEAUCAIRE 114 V1 M
15 00:53:15 PASCAL GERARD EVEIL MENDOIS 214 V2 M
16 00:53:43 LEGAL LAURENT ALES CA 251 V1 M
17 00:54:20 TEYSSIER GILLES ACN ANDUZE 271 SE M
18 00:54:56 PENNARUBIA STEPHAN 52 SE M
19 00:55:02 LABCHIRI NOUR-EDDINE ACN ANDUZE 244 SE M
20 00:55:19 SALINAS LUCIEN 317 V3 M
21 00:55:21 AUGUSTE CHRISTIAN CA BEAUCAIRE 112 V1 M
22 00:55:24 CHAUSSINAND JACQUES 218 V1 M
23 00:55:48 HENDRICK ROBERT BELGIAN JOGBOYS 219 V3 M
24 00:55:57 COMBES ALAIN EVEIL MENDOIS 60 V2 M
25 00:56:07 MIKOLAJCZYK PATRICK MCN 212 V1 M
26 00:56:31 CHARDES FREDERIC ALES TRI 320 V1 M
27 00:56:40 FERNANDEZ DIDIER 55 V2 M
28 00:57:21 PRAX GUILHEM CLUB ALPIN Français 315 CA M
29 00:57:25 GODIN ANNE MARIE ACN ANDUZE 215 V2 F
30 00:57:58 VINCENS FANETTE ALES CA 49 V1 F
31 00:58:05 EVESQUE PATRICK SCAC 243 V1 M
32 00:58:10 BERTRAND MARC ALES CA 103 V1 M
33 00:58:37 GIBELIN DENIS SNR CEVENNES 269 V2 M
34 00:59:02 CANONGE FLORIAN 54 ES M
35 00:59:05 RAFINESQUE OLIVIER ALES CA 59 V2 M
36 00:59:08 NICOLAS CLAUDE ALES CA 117 V3 M
37 00:59:27 PRAX JACQUES CLUB ALPIN CEVENNES 316 V2 M
38 00:59:34 MOUH MOUSSA GENOLHAC 252 V2 M
39 01:00:02 METRALS PHILIPPE 115 V1 M
40 01:00:17 SEGUIN ERIC 277 SE M
41 01:00:37 MAYOL OLIVIER SKI CLUB GENOLHAC 267 V1 M
42 01:00:41 HIGONNET NICOLE ALAJM 69 V1 F
43 01:00:42 HIGONNET PATRICK ALAJM 70 V1 M
44 01:01:01 NECTOUX PATRICE ALES CA 227 V2 M
45 01:01:24 PALLOT CATHY 240 SE F
46 01:01:28 VIGNOLE GERARD 256 V3 M
47 01:01:41 MAURIN PASCAL ALES CA 276 V1 M
48 01:01:51 BRUSUT JOSEPH 217 V3 M
49 01:02:05 BOULAT CHRISTIAN ALES CA 235 V1 M
50 01:02:18 LAZZARINA JEAN FRANCOIS 273 V2 M
51 01:02:23 VIEILLEDENT DANNYE ALES CA 249 V1 F
52 01:02:54 FELGEIROLLES REMI ALES CA 245 V2 M
53 01:03:06 CASTELLVI JEAN MARIE MCN 247 V2 M
54 01:03:47 DIET JEAN PAUL ALES CA 61 V2 M
55 01:03:50 BOUTADE CHRISTIAN 228 V3 M
56 01:03:58 ROBLES ANDRE 263 V3 M
57 01:04:55 NICOLAS MARIE JOSE 242 SE F
58 01:05:00 DELVAL LIONEL ALES CA 237 V1 M
59 01:05:14 BARRIERE PHILIPPE VELO CLUB VALLEE GALEIZON 264 V1 M
60 01:05:20 HILLAIRE RICHARD 53 V1 M
61 01:05:21 MINET PHILIPPE FOULEES DE L'AUZONNET 272 V1 M
62 01:05:40 NOGARET LOIC 116 ES M
63 01:05:48 BARRIERE FRANCOISE UCVG 266 V1 F
64 01:05:50 BARET JEAN PAUL ALES CA 262 V2 M
65 01:05:54 BADAOUI NAJEM 62 SE M
66 01:06:08 NICOLAS ALAIN 250 SE M
67 01:06:09 PINSON VERONIQUE MCN 58 SE F
68 01:06:16 MARTIN JEAN PAUL 312 SE M
69 01:06:31 VEZINET PHILIPPE CA BEAUCAIRE 57 V1 M
70 01:06:40 ASSENAT ANNE MARIE MCN 233 V2 F
71 01:06:40 MARTIN GERARD MCN 234 V2 M
72 01:07:11 MAYOL PHILIPPE 261 V1 M
73 01:07:12 BASTIDE ERIC ACN ANDUZE 118 V1 M
74 01:07:14 JULLIAN JEAN FRANCOIS 56 V2 M
75 01:07:28 BOUVIER GERARD 238 V3 M
76 01:07:30 DUMAS MARVIN 175 ES M
77 01:07:51 DUFOUR JEAN MARC SNR CEVENNES 268 V2 M
78 01:08:04 TERME JEAN LOUIS ALES CA 102 V3 M
79 01:08:04 ANFOSSI JEAN LOUIS 213 V3 M
80 01:08:36 MANCEL MARIE PIERRE ASJ 265 SE F
81 01:08:50 SUZZI MARIE FRANCOISE ALES CA 314 V1 F
82 01:08:53 DUGAS GILLES 274 V2 M
83 01:09:02 RABIER MICHEL 50 V3 M
84 01:09:48 MAURAN SYLVIE 225 V1 F
85 01:10:05 KETZINGER CHANTAL 241 V2 F
86 01:10:34 NERI ALEXIS RANDO CEZE 107 V4 M
87 01:10:38 BARET MARIE ALES CA 239 JU F
88 01:11:03 NOGARET FANCIS SCAC 68 V2 M
89 01:11:07 MAURINES ANDRE MCN 48 V3 M
90 01:11:30 BALADIER PIERRE ASOS ALES 104 V3 M
91 01:11:32 TUQUET ANDREE ALES CA 258 V1 F
92 01:11:46 VICHY CHRISTIAN 174 V2 M
93 01:12:30 JOUBERT FERNAND ALES CA 223 V3 M
94 01:12:35 BOUDET PIERRE EVEIL MENDOIS 220 V2 M
95 01:13:02 GOUDARD MARYSE CPS MONTPELLIER 110 V3 F
96 01:13:49 BOULAT NADIA ALES CA 236 V1 F
97 01:13:55 PASSALACQUA MYRIAM MINET SA 119 V2 F
98 01:14:32 GIARD ANNE DANY ACN ANDUZE 257 V2 F
99 01:14:59 ROUVILLE DENIS 232 V1 M
100 01:14:59 JOUBERT EMILIE ALES CA 224 JU F

Début  Précédent 1 2 Suivant  Fin  



























COPYRIGHT / RESPONSABILITE
Toute reproduction de notre calendrier (qu'elle soit partielle ou complète) ou d'une fiche descriptive pour un usage autre que personnel, ou toute utilisation dans le cadre d'une prospection commerciale des coordonnées diffusées donnera lieu immédiatement à une procédure en justice.

Les résultats sont diffusés à titre indicatif sur la base d'informations déclaratives lors de l'inscription, et communiquées par les chronométreurs ou les organisateurs. La responsabilité de Le-Sportif.com ne pourra en aucun cas être engagée en cas de contestation ou litige sur les dites informations.



Copyright © 2002 - 2021 / Studiodev SARL / Le-Sportif / Registration4all
All rights reserved.
CNIL declaration number: 1999972